Tracking 32139 objects as of 18-Nov-2025
HD Live streaming from Space Station
objects crossing your sky now

ONEWEB-0237

Track ONEWEB-0237 now!
10-day predictions
ONEWEB-0237 is classified as:


NORAD ID: 48770
Int'l Code: 2021-045D
Perigee: 1,207.3 km
Apogee: 1,210.5 km
Inclination: 87.9 °
Period: 109.5 minutes
Semi major axis: 7579 km
RCS: Unknown
Launch date: May 28, 2021
Source: United Kingdom (UK)
Launch site: VOSTOCHNY COSMODROME (VOSTO)
Your satellite tracking list
Your tracking list is empty




NASA's NSSDC Master Catalog

Two Line Element Set (TLE):
1 48770U 21045D   25322.01850762  .00000092  00000-0  21113-3 0  9993
2 48770  87.8963 301.3505 0002113  90.1667 269.9706 13.15546560216624
Source of the keplerian elements: AFSPC